Location: Barrio Las Umbrías
(40.4173°N, 4.8685°W)
Time: 11:44:24
(UTC+00:00)

Cosmos 1515 Rocket - Pass Details

Date: 17 August 2022
Orbit: 606 x 628 km, 82.5° (Epoch: 27 September)

Event Time Altitude Azimuth Distance (km) Brightness Sun altitude
Rises 21:03:48 0° 356° (N) 2,886 7.6 -19.2°
Reaches altitude 10° 21:06:03 10° 360° (N) 1,980 6.6 -19.6°
Maximum altitude 21:10:23 60° 80° (E) 706 3.6 -20.2°
Enters shadow 21:11:05 53° 122° (ESE) 765 3.6 -20.3°
